Regional Weather Roundup
Issued by NWS

Home | Current Version | Previous Version | Graphics & Text | Print | Product List | Glossary On
Versions: 1 2 3 4 5 6 7 8 9 10 11 12 13 14 15 16 17 18 19 20 21 22 23 24 25 26 27 28 29 30 31 32 33 34 35 36 37 38 39 40 41 42 43 44 45 46 47 48 49 50
000
ASUS43 KMKX 230600
RWRWI

WISCONSIN REGIONAL WEATHER ROUNDUP
NATIONAL WEATHER SERVICE MILWAUKEE/SULLIVAN WI
100 AM CDT SAT AUG 23 2014

NOTE: "FAIR" INDICATES FEW OR NO CLOUDS BELOW 12,000 FEET WITH NO
SIGNIFICANT WEATHER AND/OR OBSTRUCTIONS TO VISIBILITY.

WIZ001-002-006>008-014>016-023>028-230700-
NORTHWEST WISCONSIN

CITY           SKY/WX    TMP DP  RH WIND       PRES   REMARKS
SUPERIOR ARPT  CLOUDY    61  60  97 CALM      30.06S
ASHLAND        CLOUDY    63  61  93 CALM      30.06S
6HR MIN TEMP:  63; 6HR MAX TEMP:  66;

HAYWARD        CLOUDY    65  64  97 N6        30.06R
6HR MIN TEMP:  65; 6HR MAX TEMP:  70;

SIREN          CLOUDY    66  64  93 NE5       30.04F
RICE LAKE      FAIR      66  64  94 CALM      30.04S FOG
6HR MIN TEMP:  66; 6HR MAX TEMP:  73; 6HR PCP:  0.01;

LADYSMITH      FAIR      67  65  94 N3        30.05S
EAU CLAIRE     NOT AVBL
MENOMONIE      FAIR      70  68  95 N3        30.01F
NEW RICHMOND   FAIR      68  67  99 NE5       30.03S
OSCEOLA        CLOUDY    69  69 100 N6        30.05S
$$

WIZ003>005-009-010-017-018-230700-
NORTH CENTRAL WISCONSIN

CITY           SKY/WX    TMP DP  RH WIND       PRES   REMARKS
WOODRUFF       CLOUDY    69  67  92 N3        30.05S FOG
RHINELANDER    FOG       69  68  96 CALM      30.05S VSB 1/2
6HR MIN TEMP:  68; 6HR MAX TEMP:  73;

EAGLE RIVER    DRZL/FOG  69  69 100 CALM      30.04S VSB 1/4
LAND O LAKES   FOG       68  68 100 N3        30.06S VSB 3/4
PHILLIPS       CLOUDY    65  65 100 N3        30.04S FOG
6HR MIN TEMP:  65; 6HR MAX TEMP:  72;

TOMAHAWK       CLOUDY    68  67  96 CALM      30.04F FOG
MEDFORD        FAIR      68  68 100 CALM      30.04R FOG
MERRILL        FOG       70  70 100 CALM      30.03S VSB 1/2
$$

WIZ029-030-035-036-043>047-230700-
CENTRAL WISCONSIN

CITY           SKY/WX    TMP DP  RH WIND       PRES   REMARKS
WAUSAU         CLOUDY    72  71  97 CALM      30.01R FOG
6HR MIN TEMP:  72; 6HR MAX TEMP:  76;

MOSINEE        FAIR      72  72 100 CALM      30.03R FOG
MARSHFIELD     CLOUDY    74  72  93 NE5       30.01R FOG
6HR MIN TEMP:  73; 6HR MAX TEMP:  83;

STEVENS POINT  MOCLDY    70  69  95 E5        30.01S FOG
WAUPACA        MOCLDY    73  71  93 CALM      30.01S FOG
WAUTOMA        MOCLDY    73  72  94 E5        29.99F
WISC RAPIDS    CLOUDY    74  71  91 E6        30.00S
6HR MIN TEMP:  74; 6HR MAX TEMP:  84;

CAMP DOUGLAS   FOG       70  70 100 CALM      29.98S VSB 1/4
$$

WIZ011>013-019>022-031-037>040-048>050-230700-
NORTHEAST WISCONSIN

CITY           SKY/WX    TMP DP  RH WIND       PRES   REMARKS
ANTIGO         CLOUDY    69  69 100 CALM      30.05R FOG
STURGEON BAY   CLOUDY    68  64  88 SE5       30.02S
6HR MIN TEMP:  68; 6HR MAX TEMP:  70;

GREEN BAY      CLOUDY    70  68  93 E5        30.01S FOG
6HR MIN TEMP:  70; 6HR MAX TEMP:  77;

MANITOWOC      NOT AVBL
APPLETON       MOCLDY    70  68  94 E5        30.02R FOG
CLINTONVILLE   MOCLDY    70  68  94 E3        30.01S FOG
OSHKOSH        CLOUDY    73  70  90 NE5       30.00R
6HR MIN TEMP:  72; 6HR MAX TEMP:  78;

$$

WIZ032>034-041-042-053>061-230700-
SOUTHWEST WISCONSIN

CITY           SKY/WX    TMP DP  RH WIND       PRES   REMARKS
LA CROSSE      FAIR      74  71  91 NW6       29.97S
6HR MIN TEMP:  74; 6HR MAX TEMP:  85;

SPARTA         CLOUDY    68  67  97 CALM      29.98F
VIROQUA        FAIR      73  73 100 CALM      30.00R
BOSCOBEL       MOCLDY    76  74  93 CALM      29.95S FOG
6HR MIN TEMP:  76; 6HR MAX TEMP:  87;

PRAIRIE DU CHI CLOUDY    78  75  90 CALM      29.95S HX  81
PLATTEVILLE    FAIR      76  75  96 CALM      29.98S
$$

WIZ056-057-062-063-064-067-068-230700-
SOUTH CENTRAL WISCONSIN

CITY           SKY/WX    TMP DP  RH WIND       PRES   REMARKS
BARABOO/DELLS  FAIR      74  71  93 CALM      29.97S FOG
LONE ROCK      NOT AVBL
WATERTOWN      FAIR      71  71 100 SE3       29.99S FOG
MADISON        MOCLDY    76  73  91 SE6       29.97S
6HR MIN TEMP:  76; 6HR MAX TEMP:  86;

MIDDLETON      MOCLDY    78  78  97 SE3       29.97F HX  82
MONROE         FAIR      75  73  94 S5        29.98S FOG
JANESVILLE     FAIR      75  73  94 E3        29.97S FOG
$$

WIZ051-052-058>065-066-070>072-230700-
SOUTHEAST WISCONSIN

CITY           SKY/WX    TMP DP  RH WIND       PRES   REMARKS
MILWAUKEE      FOG       70  68  93 E3        30.00S VSB 1/8
6HR MIN TEMP:  69; 6HR MAX TEMP:  71;

WAUKESHA       CLOUDY    68  68 100 E3        30.02R FOG
MILWAUKEE/TIMM FOG       68  64  88 CALM      30.01S VSB 1/2
RACINE         FOG       70  69  97 E3        30.01F VSB 1/4
6HR MIN TEMP:  70; 6HR MAX TEMP:  74;

BURLINGTON     CLOUDY    71  70  98 NE3       29.99F FOG
KENOSHA        FOG       71  71 100 NE7       30.00S VSB 1/2
6HR MIN TEMP:  71; 6HR MAX TEMP:  76;

FOND DU LAC    CLOUDY    71  68  90 SE3       29.99S FOG
6HR MIN TEMP:  71; 6HR MAX TEMP:  80;

SHEBOYGAN      FOG       68  67  96 CALM      30.01S VSB 1/4
6HR MIN TEMP:  68; 6HR MAX TEMP:  71;

WEST BEND      FOG       68  66  94 SE5       30.01S VSB 1/4
JUNEAU         FAIR      71  44  39 E7        30.01S HAZE
$$

LSZ147-162-230700-
LAKE SUPERIOR

STATION/POSITION TIME  TEMP    WIND        PRES    WAVE
                       AIR SEA DIR/SP/G            HT/PER
                 (UTC) (F)     (DEG/KT/KT) (MB)    (FT/S)
W MID LAKE BUOY  0450   59 58   40/ 12/ 14 1017.5R   2/ 4
DEVILS ISLAND    0500   61      60/  9/ 10 1017.8F
PORT WING        0540   61      CALM  /  2 1017.9S
SAXON HARBOR     0500   63        CALM     1017.6
$$

LMZ867-665-643>646-230700-
LAKE MICHIGAN

STATION/POSITION TIME  TEMP    WIND        PRES    WAVE
                       AIR SEA DIR/SP/G            HT/PER
                 (UTC) (F)     (DEG/KT/KT) (MB)    (FT/S)
N MID LAKE BUOY  0450   68 66  110/  8/ 10 1015.9F   0
NORTHPORT PIER   0500   67     120/  1/  3 1016.3S
SISTER BAY       0541   68     140/  2/  6   N/A
ALGOMA LAKESHORE 0353             CALM       N/A
KEWAUNEE LAKESHO 0500   67      40/  2/  5 1015.3F
SHEBOYGAN LAKESH 0500   68 64  200/  3/  4 1016.1F
ATWATER BUOY     0500   69     330/  2/  2 1016.8F
MILWAUKEE LAKESH 0500   69      30/  3/  4   N/A
S MID LAKE BUOY  0450   70 69   50/  8/ 10 1015.6F   0
KENOSHA   LAKESH 0500   71      40/  9/  9 1015.6S
$$

TC  - TEMPERATURE IN CELSIUS
VSB - VISIBILITY IN STATUTE MILES
WCI - WIND CHILL INDEX
HX  - HEAT INDEX




USA.gov is the U.S. government's official web portal to all federal, state and local government web resources and services.